�N����,����,�~����,�C��,���x,�C��,����,���ϕ���,�ő�u�ԕ���,�ő厞����,���˗�,�I�_���x,�n�����x,�ő啗���N��,DTYPE
"20/11/11","00:10",0.0,6.2,90.1,1021.5,296.0,1.7,2.6,316.0,0.00,4.7,12.3,"00:06:56",1
"20/11/11","00:20",0.0,6.1,90.5,1022.0,300.1,1.3,2.2,318.6,0.00,4.7,12.4,"00:18:32",1
"20/11/11","00:30",0.0,5.8,90.7,1022.0,299.0,1.5,2.1,308.2,0.00,4.4,12.5,"00:25:52",1
"20/11/11","00:40",0.0,5.5,91.1,1021.8,291.8,1.0,1.4,323.6,0.00,4.2,12.3,"00:30:02",1
"20/11/11","00:50",0.0,5.5,91.5,1021.8,296.1,1.2,2.2,312.0,0.00,4.3,12.3,"00:49:28",1
"20/11/11","01:00",0.0,5.3,91.7,1022.0,305.6,1.6,2.0,314.0,0.00,4.1,12.1,"00:50:02",1
"20/11/11","01:10",0.0,5.3,91.9,1021.5,306.8,1.5,2.5,317.8,0.00,4.1,12.3,"01:00:24",1
"20/11/11","01:20",0.0,5.0,92.1,1021.8,285.0,1.2,1.6,262.5,0.00,3.9,11.9,"01:10:16",1
"20/11/11","01:30",0.0,4.9,92.4,1021.5,305.0,1.7,2.5,319.2,0.00,3.8,12.1,"01:24:56",1
"20/11/11","01:40",0.0,5.0,92.6,1021.5,306.7,1.6,2.1,314.9,0.00,3.9,12.1,"01:32:16",1
"20/11/11","01:50",0.0,5.1,92.8,1021.8,304.7,1.3,2.1,312.4,0.00,4.1,11.9,"01:44:00",1
"20/11/11","02:00",0.0,5.7,93.0,1021.8,329.1,1.6,3.1,338.9,0.00,4.7,11.7,"01:56:16",1
"20/11/11","02:10",0.0,6.1,93.3,1021.8,319.0,1.7,3.2,323.4,0.00,5.1,11.8,"02:01:36",1
"20/11/11","02:20",0.0,6.4,93.6,1022.0,300.5,2.0,4.7,329.0,0.00,5.5,11.9,"02:18:32",1
"20/11/11","02:30",0.0,7.0,93.6,1022.3,324.4,3.0,4.4,319.9,0.00,6.1,12.0,"02:21:52",1
"20/11/11","02:40",0.0,7.1,93.8,1022.5,329.8,2.8,4.7,332.8,0.00,6.2,12.0,"02:32:56",1
"20/11/11","02:50",0.0,7.3,93.9,1022.5,331.6,3.1,5.0,335.9,0.00,6.4,12.1,"02:44:40",1
"20/11/11","03:00",0.0,7.5,93.9,1022.5,329.2,3.6,5.6,336.8,0.00,6.6,11.9,"02:57:12",1
"20/11/11","03:10",0.0,7.7,93.8,1022.5,325.4,3.4,6.0,323.9,0.00,6.8,12.0,"03:08:00",1
"20/11/11","03:20",0.0,7.8,93.6,1022.7,320.2,2.5,4.9,348.2,0.00,6.9,12.1,"03:11:52",1
"20/11/11","03:30",0.0,7.7,93.5,1022.7,327.0,3.2,7.0,341.1,0.00,6.8,11.9,"03:23:44",1
"20/11/11","03:40",0.0,7.6,93.4,1022.7,326.0,3.0,4.8,328.4,0.00,6.6,12.1,"03:30:56",1
"20/11/11","03:50",0.0,7.6,93.3,1023.2,325.1,2.6,4.3,327.6,0.00,6.6,11.8,"03:41:52",1
"20/11/11","04:00",0.0,7.4,93.2,1023.2,311.3,1.7,3.1,312.0,0.00,6.4,12.0,"03:52:56",1
"20/11/11","04:10",0.0,7.0,93.1,1022.5,286.7,1.6,2.6,314.9,0.00,6.0,11.7,"04:00:32",1
"20/11/11","04:20",0.0,6.5,93.3,1023.2,280.5,1.2,1.9,290.0,0.00,5.5,11.9,"04:15:20",1
"20/11/11","04:30",0.0,6.0,93.3,1023.0,312.4,1.6,2.6,323.0,0.00,5.0,11.8,"04:24:48",1
"20/11/11","04:40",0.0,5.5,93.5,1022.7,318.0,1.8,2.7,327.4,0.00,4.6,11.8,"04:33:52",1
"20/11/11","04:50",0.0,5.3,93.6,1023.0,298.7,1.7,2.2,315.3,0.00,4.4,11.7,"04:40:24",1
"20/11/11","05:00",0.0,5.2,93.7,1023.2,301.8,1.5,2.1,312.6,0.00,4.3,11.8,"04:55:12",1
"20/11/11","05:10",0.0,5.3,93.8,1023.0,302.1,1.0,1.7,298.2,0.00,4.4,11.7,"05:07:52",1
"20/11/11","05:20",0.0,5.4,94.0,1023.2,285.1,1.0,1.9,318.1,0.00,4.6,11.7,"05:13:12",1
"20/11/11","05:30",0.0,5.7,94.0,1023.2,296.5,1.0,1.4,288.7,0.00,4.9,11.7,"05:22:08",1
"20/11/11","05:40",0.0,6.0,94.1,1023.4,305.1,1.6,2.2,325.9,0.00,5.2,11.6,"05:38:24",1
"20/11/11","05:50",0.0,6.2,94.0,1023.7,299.0,1.5,2.6,318.4,0.00,5.3,11.8,"05:43:36",1
"20/11/11","06:00",0.0,6.3,94.0,1023.4,287.6,1.1,2.0,307.3,0.00,5.4,11.7,"05:55:20",1
"20/11/11","06:10",0.0,6.1,93.9,1023.7,305.2,1.6,2.6,323.0,0.00,5.2,11.7,"06:01:28",1
"20/11/11","06:20",0.0,5.7,94.0,1023.9,302.4,1.6,2.0,318.8,0.00,4.9,11.7,"06:18:08",1
"20/11/11","06:30",0.0,5.3,94.2,1023.9,302.0,1.3,2.2,318.3,0.00,4.5,11.5,"06:27:28",1
"20/11/11","06:40",0.0,5.4,94.6,1023.4,304.6,1.6,2.0,318.1,0.00,4.6,11.6,"06:31:52",1
"20/11/11","06:50",0.0,5.7,94.7,1024.4,291.7,1.3,2.1,316.8,0.00,5.0,11.7,"06:49:28",1
"20/11/11","07:00",0.0,6.1,94.7,1024.1,308.8,1.7,2.2,324.1,0.00,5.4,11.6,"06:54:32",1
"20/11/11","07:10",0.0,6.4,94.7,1024.4,276.6,1.3,1.6,259.9,0.00,5.7,11.7,"07:04:32",1
"20/11/11","07:20",0.0,6.7,94.8,1024.4,277.3,1.5,2.0,259.1,0.00,6.0,11.8,"07:18:24",1
"20/11/11","07:30",0.0,7.1,94.9,1024.6,288.7,1.5,2.1,318.8,0.02,6.4,11.7,"07:22:40",1
"20/11/11","07:40",0.0,7.9,95.0,1024.6,290.6,1.3,2.4,334.2,0.06,7.2,11.7,"07:37:52",1
"20/11/11","07:50",0.0,8.5,94.8,1025.1,313.7,2.1,3.5,331.1,0.07,7.8,11.7,"07:47:12",1
"20/11/11","08:00",0.0,8.8,94.8,1025.6,313.3,2.1,3.3,321.2,0.08,8.1,11.9,"07:58:32",1
"20/11/11","08:10",0.0,9.3,94.4,1025.6,315.1,1.6,2.7,331.1,0.06,8.5,11.8,"08:07:28",1
"20/11/11","08:20",0.0,9.2,94.1,1025.8,311.1,0.8,2.5,332.8,0.02,8.3,12.0,"08:10:08",1
"20/11/11","08:30",0.0,9.3,94.2,1026.0,297.6,1.2,2.0,318.5,0.04,8.5,12.1,"08:20:48",1
"20/11/11","08:40",0.0,9.3,94.3,1026.7,264.5,0.7,1.1,298.3,0.09,8.5,12.2,"08:32:40",1
"20/11/11","08:50",0.0,9.8,94.2,1026.5,114.4,0.7,1.6,115.2,0.18,9.0,12.4,"08:42:16",1
"20/11/11","09:00",0.0,10.3,93.2,1026.5,190.4,0.6,1.6,98.9,0.23,9.3,12.4,"08:55:52",1
"20/11/11","09:10",0.0,10.3,92.8,1026.7,264.8,0.7,1.4,273.3,0.12,9.2,12.4,"09:04:16",1
"20/11/11","09:20",0.0,10.3,92.2,1026.7,302.7,1.2,2.4,335.1,0.11,9.1,12.7,"09:10:40",1
"20/11/11","09:30",0.0,10.2,91.6,1026.7,271.3,1.0,1.3,235.7,0.09,8.9,12.5,"09:21:12",1
"20/11/11","09:40",0.0,10.3,90.6,1027.0,274.5,0.6,1.1,317.4,0.10,8.9,12.7,"09:30:32",1
"20/11/11","09:50",0.0,10.6,89.9,1027.2,260.3,0.3,0.6,296.0,0.11,9.1,12.8,"09:40:48",1
"20/11/11","10:00",0.0,11.1,88.6,1026.7,261.8,1.0,2.2,226.9,0.28,9.3,13.0,"09:58:48",1
"20/11/11","10:10",0.0,11.5,87.2,1026.7,232.5,1.3,2.4,204.1,0.36,9.5,13.2,"10:07:04",1
"20/11/11","10:20",0.0,12.3,84.7,1026.7,227.1,0.8,2.0,224.8,0.40,9.8,13.2,"10:18:24",1
"20/11/11","10:30",0.0,12.0,81.0,1026.5,196.6,1.0,2.4,217.4,0.19,8.9,13.3,"10:21:28",1
"20/11/11","10:40",0.0,11.7,78.7,1026.7,181.6,0.7,1.7,126.5,0.09,8.2,13.2,"10:34:48",1
"20/11/11","10:50",0.0,11.6,77.4,1026.7,172.7,0.6,1.8,170.9,0.07,7.8,13.5,"10:42:40",1
"20/11/11","11:00",0.0,11.4,77.2,1026.5,36.3,0.6,1.9,118.5,0.06,7.6,13.4,"10:54:16",1
"20/11/11","11:10",0.0,12.2,76.8,1026.7,267.2,0.7,2.5,234.0,0.24,8.3,13.7,"11:06:36",1
"20/11/11","11:20",0.0,12.7,75.3,1026.5,229.9,1.3,3.7,234.5,0.33,8.5,13.7,"11:16:48",1
"20/11/11","11:30",0.0,12.9,74.7,1026.3,208.7,1.0,1.9,151.7,0.27,8.6,13.8,"11:22:00",1
"20/11/11","11:40",0.0,12.7,74.2,1026.0,194.4,0.6,1.6,84.1,0.12,8.3,13.7,"11:30:08",1
"20/11/11","11:50",0.0,12.8,73.8,1026.0,200.3,0.6,1.4,200.7,0.13,8.3,13.9,"11:41:04",1
"20/11/11","12:00",0.0,12.6,73.0,1026.0,124.4,0.6,2.1,112.6,0.13,7.9,13.9,"11:52:56",1
"20/11/11","12:10",0.0,12.8,72.8,1026.3,280.7,0.6,1.7,226.5,0.12,8.1,14.1,"12:03:28",1
"20/11/11","12:20",0.0,13.7,72.0,1025.6,291.9,1.1,1.8,325.6,0.32,8.8,14.0,"12:14:16",1
"20/11/11","12:30",0.0,14.1,69.3,1025.6,262.5,1.1,3.6,234.4,0.33,8.6,14.3,"12:21:20",1
"20/11/11","12:40",0.0,14.5,67.1,1025.3,72.2,0.8,2.2,118.8,0.32,8.5,14.5,"12:37:20",1
"20/11/11","12:50",0.0,13.8,65.6,1025.6,348.7,1.3,2.9,300.5,0.14,7.5,14.5,"12:48:48",1
"20/11/11","13:00",0.0,14.3,64.4,1025.8,319.0,2.2,5.4,329.4,0.37,7.7,14.6,"12:52:48",1
"20/11/11","13:10",0.0,14.3,61.5,1025.3,343.7,2.0,3.6,340.0,0.19,7.0,14.7,"13:07:12",1
"20/11/11","13:20",0.0,13.9,62.1,1025.1,350.7,2.0,4.0,4.8,0.13,6.8,14.8,"13:11:20",1
"20/11/11","13:30",0.0,13.7,61.8,1025.3,347.1,2.1,4.4,336.2,0.15,6.6,14.7,"13:27:44",1
"20/11/11","13:40",0.0,13.5,62.8,1025.3,352.5,2.3,4.2,337.7,0.12,6.6,14.6,"13:35:44",1
"20/11/11","13:50",0.0,13.6,64.1,1025.3,350.2,2.0,4.0,350.1,0.18,7.0,14.6,"13:43:12",1
"20/11/11","14:00",0.0,13.6,63.1,1025.1,339.3,2.6,5.4,336.5,0.18,6.8,14.5,"13:56:16",1
"20/11/11","14:10",0.0,13.4,64.2,1025.6,337.0,1.7,2.9,343.3,0.15,6.8,14.8,"14:02:48",1
"20/11/11","14:20",0.0,14.2,61.9,1025.6,341.3,1.7,3.3,350.3,0.30,7.0,14.7,"14:15:28",1
"20/11/11","14:30",0.0,14.3,60.8,1025.8,329.3,2.3,6.2,341.9,0.27,6.9,14.9,"14:24:16",1
"20/11/11","14:40",0.0,14.5,60.1,1025.6,324.8,2.3,4.3,329.1,0.26,6.9,14.8,"14:33:04",1
"20/11/11","14:50",0.0,14.6,59.1,1025.6,329.3,2.5,4.9,12.6,0.27,6.8,14.8,"14:47:52",1
"20/11/11","15:00",0.0,13.7,60.4,1025.1,354.7,2.2,4.2,8.5,0.10,6.2,14.7,"14:56:08",1
"20/11/11","15:10",0.0,13.3,62.7,1025.3,343.8,2.0,3.5,345.4,0.09,6.4,14.7,"15:09:22",1
"20/11/11","15:20",0.0,13.5,63.5,1025.3,327.5,2.3,5.4,339.5,0.14,6.8,14.7,"15:13:12",1
"20/11/11","15:30",0.0,13.4,62.8,1025.3,315.9,2.0,4.4,324.9,0.11,6.5,14.8,"15:26:32",1
"20/11/11","15:40",0.0,13.4,62.5,1025.3,326.5,2.1,4.5,322.9,0.10,6.4,15.0,"15:32:40",1
"20/11/11","15:50",0.0,13.3,62.9,1025.3,308.1,1.6,3.4,335.4,0.08,6.4,14.8,"15:41:36",1
"20/11/11","16:00",0.0,13.1,62.7,1025.3,305.5,2.0,3.6,311.2,0.05,6.2,14.7,"15:56:40",1
"20/11/11","16:10",0.0,12.8,63.1,1025.8,321.8,1.7,4.1,342.5,0.03,6.0,14.7,"16:04:42",1
"20/11/11","16:20",0.0,12.3,63.6,1025.6,334.7,1.5,2.9,354.9,0.00,5.6,14.4,"16:11:26",1
"20/11/11","16:30",0.0,12.0,65.0,1025.8,321.4,2.5,4.4,346.8,0.00,5.7,14.6,"16:21:22",1
"20/11/11","16:40",0.0,11.6,65.9,1025.3,318.6,2.5,4.4,337.2,0.00,5.5,14.3,"16:33:30",1
"20/11/11","16:50",0.0,11.3,66.6,1025.8,312.0,2.0,3.7,331.2,0.00,5.4,14.3,"16:42:42",1
"20/11/11","17:00",0.0,11.0,67.8,1025.6,314.3,2.1,3.4,320.8,0.00,5.3,14.2,"16:51:50",1
"20/11/11","17:10",0.0,10.7,68.4,1026.0,301.7,1.6,2.7,334.1,0.00,5.2,14.0,"17:02:04",1
"20/11/11","17:20",0.0,10.3,69.6,1025.8,320.0,1.5,2.4,315.8,0.00,5.0,13.8,"17:13:28",1
"20/11/11","17:30",0.0,9.6,71.2,1026.0,324.4,1.6,2.1,315.9,0.00,4.7,14.1,"17:22:48",1
"20/11/11","17:40",0.0,8.9,73.3,1026.0,312.8,1.5,2.2,308.3,0.00,4.4,14.0,"17:34:08",1
"20/11/11","17:50",0.0,8.4,75.0,1025.8,309.2,2.0,3.2,317.4,0.00,4.3,13.7,"17:49:20",1
"20/11/11","18:00",0.0,7.9,76.2,1026.0,302.0,1.7,2.4,306.2,0.00,4.0,13.4,"17:51:28",1
"20/11/11","18:10",0.0,7.6,77.5,1026.0,292.2,1.3,2.0,314.5,0.00,4.0,13.5,"18:04:40",1
"20/11/11","18:20",0.0,7.3,78.7,1025.8,296.4,1.5,2.4,298.6,0.00,3.9,13.3,"18:15:20",1
"20/11/11","18:30",0.0,7.3,80.2,1026.0,299.3,1.7,2.8,328.5,0.00,4.2,13.1,"18:29:28",1
"20/11/11","18:40",0.0,7.3,81.6,1026.3,298.1,1.3,2.2,307.5,0.00,4.4,13.4,"18:30:48",1
"20/11/11","18:50",0.0,6.9,82.8,1026.3,298.2,0.7,1.9,289.1,0.00,4.2,13.1,"18:48:48",1
"20/11/11","19:00",0.0,6.5,83.9,1026.5,277.6,0.7,1.9,263.5,0.00,4.0,13.0,"18:59:44",1
"20/11/11","19:10",0.0,6.4,84.7,1026.5,283.7,1.6,2.2,273.8,0.00,4.1,12.7,"19:03:12",1
"20/11/11","19:20",0.0,6.7,85.5,1026.7,297.4,2.0,2.4,317.8,0.00,4.5,12.6,"19:16:24",1
"20/11/11","19:30",0.0,6.8,86.2,1026.7,306.5,2.2,2.7,322.4,0.00,4.7,12.6,"19:28:00",1
"20/11/11","19:40",0.0,6.7,86.8,1026.7,298.6,1.8,2.5,321.3,0.00,4.7,12.7,"19:30:32",1
"20/11/11","19:50",0.0,6.6,87.4,1026.7,288.4,1.7,2.5,303.8,0.00,4.7,12.6,"19:49:12",1
"20/11/11","20:00",0.0,6.5,87.8,1026.5,296.7,1.6,2.2,321.2,0.00,4.7,12.5,"19:50:32",1
"20/11/11","20:10",0.0,6.3,88.2,1026.5,293.7,1.5,2.1,307.9,0.00,4.5,12.5,"20:07:52",1
"20/11/11","20:20",0.0,6.2,88.6,1026.5,284.8,1.5,1.9,282.7,0.00,4.5,12.2,"20:12:00",1
"20/11/11","20:30",0.0,6.2,88.9,1026.5,279.2,1.5,2.2,283.6,0.00,4.5,12.4,"20:23:36",1
"20/11/11","20:40",0.0,6.2,89.2,1026.5,288.4,1.8,2.4,305.1,0.00,4.6,12.2,"20:36:32",1
"20/11/11","20:50",0.0,6.2,89.5,1026.5,292.4,1.7,2.6,323.5,0.00,4.6,12.2,"20:40:24",1
"20/11/11","21:00",0.0,6.1,89.9,1026.3,306.9,1.8,2.9,318.2,0.00,4.6,12.0,"20:55:52",1
"20/11/11","21:10",0.0,6.2,90.2,1026.5,309.3,2.0,3.4,332.7,0.00,4.8,11.9,"21:03:28",1
"20/11/11","21:20",0.0,6.1,90.4,1026.5,305.5,2.1,2.8,315.3,0.00,4.7,11.8,"21:17:52",1
"20/11/11","21:30",0.0,5.8,90.7,1026.7,303.7,1.7,2.5,317.6,0.00,4.4,11.8,"21:28:24",1
"20/11/11","21:40",0.0,5.7,91.1,1026.5,303.2,1.8,2.7,330.3,0.00,4.4,11.9,"21:39:28",1
"20/11/11","21:50",0.0,5.6,91.2,1026.7,295.5,1.6,2.9,319.0,0.00,4.3,11.8,"21:44:32",1
"20/11/11","22:00",0.0,5.6,91.5,1026.3,285.8,1.5,2.0,315.6,0.00,4.4,11.7,"21:57:52",1
"20/11/11","22:10",0.0,5.7,91.7,1026.7,291.5,1.6,2.8,319.3,0.00,4.5,11.6,"22:09:20",1
"20/11/11","22:20",0.0,5.9,92.0,1026.7,297.5,1.8,2.8,295.3,0.00,4.7,11.7,"22:13:12",1
"20/11/11","22:30",0.0,6.1,92.1,1026.3,306.4,1.8,3.1,316.0,0.00,5.0,11.8,"22:25:36",1
"20/11/11","22:40",0.0,5.9,92.1,1026.7,289.4,1.5,2.2,252.8,0.00,4.8,11.5,"22:31:20",1
"20/11/11","22:50",0.0,5.9,92.5,1026.7,299.0,1.6,2.8,294.7,0.00,4.8,11.5,"22:45:52",1
"20/11/11","23:00",0.0,5.9,92.6,1026.7,295.5,1.5,2.9,331.0,0.00,4.8,11.7,"22:59:12",1
"20/11/11","23:10",0.0,6.1,92.8,1027.0,321.9,2.3,3.7,321.0,0.00,5.1,11.7,"23:06:48",1
"20/11/11","23:20",0.0,6.2,92.8,1027.2,319.3,2.3,3.6,327.1,0.00,5.2,11.7,"23:10:16",1
"20/11/11","23:30",0.0,6.0,92.7,1027.2,301.8,1.0,2.1,338.9,0.00,4.9,11.5,"23:20:16",1
"20/11/11","23:40",0.0,5.6,92.9,1027.0,283.2,1.3,2.6,317.1,0.00,4.6,11.6,"23:39:04",1
"20/11/11","23:50",0.0,5.3,93.2,1027.0,292.4,1.7,2.4,309.3,0.00,4.3,11.5,"23:40:40",1
"20/11/11","24:00",0.0,5.2,93.3,1027.0,299.9,1.5,2.6,315.2,0.00,4.2,11.5,"23:51:52",1
